Date String (YYYY-MM-DD hh:mm:ss) UTC,Instrument flags,Ambient pressure (hPa),Sample flow (lpm),Bypass flow (lpm),Sample temperature (°C),Ambient temperature (°C),ASC tube jacket temperature (°C),LED temperature (°C),Box temperature (°C),Sample RH (%),Span deviation,Mass concentration (μg/m³),Mass concentration (μg/m³),Mass concentration (μg/m³)
DateTimeUTC,F1_M11,P_M11,Q1_M11,Q2_M11,T1_M11,T2_M11,T3_M11,T4_M11,T5_M11,U1_M11,ZSPAN_M11,X0_M11,X2_M11,X1_M11
2022-08-08 16:00:00,,0832.8,5.01,0.00,31.7,28.3,00.0,39.7,32.4,33.9,-000.3,0008.83,0004.93,0004.52
2022-08-08 16:01:00,,0832.8,4.99,0.00,31.7,28.4,00.0,39.7,32.4,33.4,-000.5,0008.89,0005.01,0004.59
2022-08-08 16:02:00,,0832.7,5.00,0.00,31.7,28.6,00.0,39.8,32.4,33.4,-000.5,0009.05,0005.10,0004.65
2022-08-08 16:03:00,,0832.7,4.99,0.00,31.8,28.7,00.0,39.8,32.4,33.7,-000.5,0009.25,0005.15,0004.69
2022-08-08 16:04:00,,0832.7,5.00,0.00,31.8,28.8,00.0,39.8,32.4,33.4,-000.2,0009.35,0005.16,0004.71
2022-08-08 16:05:00,,0832.7,5.01,0.00,31.7,28.8,00.0,39.9,32.4,33.4,-000.2,0009.30,0005.14,0004.71
2022-08-08 16:06:00,,0832.7,5.00,0.00,31.7,28.2,00.0,39.8,32.2,34.5,-000.6,0008.97,0005.15,0004.71
2022-08-08 16:07:00,,0832.7,4.99,0.00,31.6,27.7,00.0,39.8,32.1,34.4,-000.4,0008.83,0005.14,0004.72
2022-08-08 16:08:00,,0832.6,5.01,0.00,31.5,27.6,00.0,39.8,32.1,34.8,-000.4,0008.68,0005.20,0004.73
2022-08-08 16:09:00,,0832.6,5.01,0.00,31.5,27.7,00.0,39.8,32.1,36.0,0000.2,0009.52,0005.29,0004.77
2022-08-08 16:10:00,,0832.6,5.00,0.00,31.6,27.8,00.0,39.8,32.2,35.6,0000.1,0010.36,0005.41,0004.84
2022-08-08 16:11:00,,0832.6,4.99,0.00,31.9,28.0,00.0,39.7,32.4,35.1,0000.2,0010.62,0005.49,0004.90
2022-08-08 16:12:00,,0832.6,4.99,0.00,32.2,28.2,00.0,39.8,32.5,34.4,0000.1,0011.05,0005.52,0004.93
2022-08-08 16:13:00,,0832.6,5.02,0.00,32.3,28.3,00.0,39.8,32.5,34.1,-000.0,0010.96,0005.54,0004.98
2022-08-08 16:14:00,,0832.6,5.00,0.00,32.4,28.5,00.0,39.9,32.5,33.7,-000.1,0011.03,0005.58,0005.03
2022-08-08 16:15:00,,0832.6,4.99,0.00,32.4,28.6,00.0,39.9,32.5,33.9,0000.1,0011.40,0005.58,0005.05
2022-08-08 16:16:00,,0832.6,5.00,0.00,32.4,28.7,00.0,40.0,32.5,33.0,-000.1,0011.60,0005.63,0005.06
2022-08-08 16:17:00,,0832.6,5.00,0.00,32.3,28.3,00.0,40.0,32.3,32.8,0000.1,0011.67,0005.64,0005.08
2022-08-08 16:18:00,,0832.5,4.99,0.00,32.2,27.8,00.0,40.0,32.2,33.7,0000.2,0012.19,0005.68,0005.10
2022-08-08 16:19:00,,0832.5,5.01,0.00,32.2,27.6,00.0,40.0,32.2,33.5,0000.6,0012.07,0005.65,0005.11
2022-08-08 16:20:00,,0832.5,4.98,0.00,32.0,27.6,00.0,40.0,32.1,33.7,0000.8,0011.33,0005.59,0005.10
2022-08-08 16:21:00,,0832.5,5.01,0.00,31.9,27.8,00.0,40.0,32.1,34.0,0000.9,0011.37,0005.50,0005.04
2022-08-08 16:22:00,,0832.5,5.00,0.00,31.8,27.9,00.0,40.0,32.1,34.4,0001.2,0011.34,0005.44,0005.00
2022-08-08 16:23:00,,0832.4,5.00,0.00,31.7,28.1,00.0,40.0,32.2,34.7,0000.9,0010.90,0005.45,0004.99
2022-08-08 16:24:00,,0832.4,5.00,0.00,31.7,28.3,00.0,40.0,32.2,35.0,0001.1,0011.06,0005.45,0004.98
2022-08-08 16:25:00,,0832.3,5.00,0.00,31.7,28.4,00.0,40.0,32.3,35.8,0000.8,0011.05,0005.44,0004.97
2022-08-08 16:26:00,,0832.4,5.01,0.00,31.9,28.6,00.0,40.0,32.5,34.9,0001.2,0010.49,0005.47,0004.96
2022-08-08 16:27:00,,0832.4,5.00,0.00,32.1,28.7,00.0,40.0,32.6,34.4,0001.8,0010.33,0005.48,0004.98
2022-08-08 16:28:00,,0832.4,5.00,0.00,32.2,28.7,00.0,40.0,32.6,34.8,0001.7,0010.46,0005.55,0005.02
2022-08-08 16:29:00,,0832.4,5.01,0.00,32.3,28.1,00.0,40.0,32.4,34.6,0001.8,0010.53,0005.55,0005.02
2022-08-08 16:30:00,,0832.4,4.99,0.00,32.3,27.7,00.0,40.0,32.3,33.0,0001.7,0010.63,0005.52,0004.97
2022-08-08 16:31:00,,0832.3,5.02,0.00,32.3,27.6,00.0,40.0,32.2,32.8,0001.2,0010.60,0005.47,0004.92
2022-08-08 16:32:00,,0832.3,4.99,0.00,32.1,27.7,00.0,40.0,32.2,33.1,0001.3,0009.92,0005.44,0004.87
2022-08-08 16:33:00,,0832.3,5.01,0.00,32.1,27.8,00.0,40.0,32.2,33.6,0001.3,0010.18,0005.40,0004.81
2022-08-08 16:34:00,,0832.3,4.99,0.00,32.0,28.0,00.0,40.0,32.2,33.7,0001.5,0010.24,0005.35,0004.76
2022-08-08 16:35:00,,0832.3,4.99,0.00,31.9,28.2,00.0,40.1,32.2,34.5,0000.9,0010.07,0005.26,0004.69
2022-08-08 16:36:00,,0832.4,5.01,0.00,31.9,28.3,00.0,40.1,32.3,34.8,0000.3,0009.82,0005.18,0004.61
2022-08-08 16:37:00,,0832.3,5.00,0.00,31.9,28.5,00.0,40.1,32.4,34.6,0000.1,0009.92,0005.08,0004.54
2022-08-08 16:38:00,,0832.3,5.00,0.00,32.0,28.6,00.0,40.1,32.5,33.9,0000.0,0009.89,0005.00,0004.48
2022-08-08 16:39:00,,0832.3,5.02,0.00,32.0,28.5,00.0,40.1,32.4,35.0,0000.0,0009.97,0004.92,0004.41
2022-08-08 16:40:00,,0832.3,4.99,0.00,32.0,27.9,00.0,40.0,32.3,34.8,0000.0,0010.16,0004.85,0004.35
2022-08-08 16:41:00,,0832.3,5.01,0.00,32.0,27.5,00.0,40.0,32.2,34.1,0000.0,0009.90,0004.84,0004.34
2022-08-08 16:42:00,,0832.3,4.98,0.00,32.0,27.5,00.0,40.0,32.2,33.8,0000.0,0009.88,0004.82,0004.34
2022-08-08 16:43:00,,0832.3,5.01,0.00,31.9,27.7,00.0,40.0,32.1,33.8,0000.0,0009.95,0004.78,0004.32
2022-08-08 16:44:00,,0832.4,5.00,0.00,31.8,27.8,00.0,40.0,32.1,33.9,0000.0,0009.34,0004.76,0004.32
2022-08-08 16:45:00,,0832.3,5.00,0.00,31.8,28.0,00.0,40.0,32.2,34.4,0000.0,0009.03,0004.75,0004.33
2022-08-08 16:46:00,,0832.3,5.00,0.00,31.7,28.2,00.0,40.0,32.2,33.9,0000.0,0009.01,0004.74,0004.32
2022-08-08 16:47:00,,0832.4,5.01,0.00,31.7,28.3,00.0,40.0,32.3,34.0,0000.0,0009.32,0004.72,0004.33
2022-08-08 16:48:00,,0832.4,4.99,0.00,31.7,28.5,00.0,40.0,32.3,33.4,0000.0,0009.47,0004.72,0004.33
2022-08-08 16:49:00,,0832.4,5.00,0.00,31.6,28.6,00.0,40.0,32.3,33.1,0000.0,0009.43,0004.71,0004.32
2022-08-08 16:50:00,,0832.4,5.00,0.00,31.6,28.5,00.0,40.0,32.3,33.7,0000.0,0009.23,0004.68,0004.31
2022-08-08 16:51:00,,0832.3,5.01,0.00,31.6,28.0,00.0,39.9,32.1,33.9,0000.0,0008.64,0004.66,0004.30
2022-08-08 16:52:00,,0832.3,5.00,0.00,31.5,27.6,00.0,39.9,32.0,34.4,0000.0,0009.01,0004.63,0004.29
2022-08-08 16:53:00,,0832.3,5.00,0.00,31.4,27.5,00.0,39.8,32.0,34.4,0000.0,0008.96,0004.62,0004.27
2022-08-08 16:54:00,,0832.3,5.01,0.00,31.3,27.6,00.0,39.8,32.0,35.0,0000.0,0008.83,0004.61,0004.27
2022-08-08 16:55:00,,0832.3,4.98,0.00,31.3,27.8,00.0,39.7,32.0,35.1,0000.0,0008.82,0004.60,0004.26
2022-08-08 16:56:00,,0832.3,5.02,0.00,31.3,28.0,00.0,39.7,32.1,35.2,0000.0,0008.85,0004.60,0004.24
2022-08-08 16:57:00,,0832.3,5.00,0.00,31.5,28.1,00.0,39.7,32.3,34.0,0000.0,0009.03,0004.63,0004.26
2022-08-08 16:58:00,,0832.3,4.99,0.00,31.6,28.3,00.0,39.7,32.3,33.9,0000.0,0008.95,0004.62,0004.25
2022-08-08 16:59:00,,0832.3,5.01,0.00,31.7,28.4,00.0,39.7,32.3,33.4,0000.0,0008.60,0004.65,0004.25
